Location: State Camp
(41.2367°N, 77.7828°W)
Time: 01:30:10
(UTC-05:00)

Hubble Space Telescope - Visible Passes

Search period start: 21 November 2017 00:00
Search period end: 01 December 2017 00:00
Orbit: 537 x 541 km, 28.5° (Epoch: 20 November)

Date Brightness Start Highest point End Pass type
(mag) Time Alt. Az. Time Alt. Az. Time Alt. Az.
21 Nov 3.2 05:36:10 10° SSW 05:38:17 14° S 05:40:24 10° SSE visible
22 Nov 3.1 05:26:19 11° SSW 05:27:56 13° S 05:29:57 10° SSE visible
23 Nov 3.1 05:16:45 12° SSW 05:17:35 13° S 05:19:24 10° SSE visible
24 Nov 3.2 05:07:10 12° S 05:07:14 12° S 05:08:43 10° SSE visible
25 Nov 3.4 04:57:36 10° S 04:57:36 10° S 04:57:41 10° S visible
